Reflectivity
-20 -20 -20 -20 -20 -20 -20 -20 -20 -20 -20 -20 -20 -20 -20 -20 -20 -20 -20 -20 -20 -20 -20 -20 -20 -20 -20 -20 -20 -20 -20 -20 -20 -20 -20 -20 -20 -20 -20 -20 -20 -20 -20 -20 -20
-20 -20 -20 -20 -20 -20 -20 -20 -20 -20 -20 -20 -20 -20 -20 -20 -20 -20 -20 -20 -20 -20 -20 -20 -20 -20 -20 -20 -20 -20 -20 -20 -20 -20 -20 -20 -20 -20 -20 -20 -20 -20 -20 -20 -20
-20 -20 -20 -20 -20 -20 -20 -20 -20 -20 -20 -20 -20 -20 -20 -20 -20 -20 -20 -20 -20 -20 -20 -20 -20 -20 -20 -20 -20 -20 -20 -20 -20 -20 -20 -20 -20 -20 -20 -20 -20 -20 -20 -20 -20
-20 -20 -20 -20 -20 -20 -20 -20 -20 -20 -20 -20 -20 -20 -20 -20 -20 -20 -20 -20 -20 -20 -20 -20 -20 -20 -20 -20 -20 -20 -20 -20 -20 -20 -20 -20 -20 -20 -20 -20 -20 -20 -20 -20 -20
-20 -20 -20 -20 -20 -20 -20 -20 -20 -20 -20 -20 -20 -20 -20 -20 -20 -20 -20 -20 -20 -20 -20 -20 -20 -20 -20 -20 -20 -20 -20 -20 -20 -20 -20 -20 -20 -20 -20 -20 -20 -20 -20 -20 -20
-20 -20 -20 -20 -20 -20 -20 -20 -20 -20 -20 -20 -20 -20 -20 -20 -20 -20 -20 -20 -20 -20 -20 -20 -20 -20 -20 -20 -20 -20 -20 -20 -20 -20 -20 -20 -20 -20 -20 -20 -20 -20 -20 -20 -20
-20 -20 -20 -20 -20 -20 -20 -20 -20 -20 -20 -20 -20 -20 -20 -20 -20 -20 -20 -20 -20 -20 -20 -20 -20 -20 -20 -20 -20 -20 -20 -20 -20 -20 -20 -20 -20 -20 -20 -20 -20 -20 -20 -20 -20
-20 -20 -20 -20 -20 -20 -20 -20 -20 -20 -20 -20 -20 -20 -20 -20 -20 -20 -20 -20 -20 -20 -20 -20 -20 -20 -20 -20 -20 -20 -20 -20 -20 -20 -20 -20 -20 -20 -20 -20 -20 -20 -20 -20 -20
-20 -20 -20 -20 -20 -20 -20 -20 -20 -20 -20 -20 -20 -20 -20 -20 -20 -20 -20 -20 -20 -20 -20 -20 -20 -20 -20 -20 -20 -20 -20 -20 -20 -20 -20 -20 -20 -20 -20 -20 -20 -20 -20 -20 -20
-20 -20 -20 -20 -20 -20 -20 -20 -20 -20 -20 -20 -20 -20 -20 -20 -20 -20 -20 -20 -20 -20 -20 -20 -20 -20 -20 -20 -20 -20 -20 -20 -20 -20 -20 -20 -20 -20 -20 -20 -20 -20 -20 -20 -20
-20 -20 -20 -20 -20 -20 -20 -20 -20 -20 -20 -20 -20 -20 -20 -20 -20 -20 -20 -20 -20 -20 -20 -20 -20 -20 -20 -20 -20 -20 -20 -20 -20 -20 -20 -20 -20 -20 -20 -20 -20 -20 -20 -20 -20
-20 -20 -20 -20 -20 -20 -20 -20 -20 -20 -20 -20 -20 -20 -20 -20 -20 -20 -20 -20 -20 -20 -20 -20 -20 -20 -20 -20 -20 -20 -20 -20 -20 -20 -20 -20 -20 -20 -20 -20 -20 -20 -20 -20 -20
-20 -20 -20 -20 -20 -20 -20 -20 -20 -20 -20 -20 -20 -20 -20 -20 -20 -20 -20 -20 -20 -20 -20 -20 -20 -20 -20 -20 -20 -20 -20 -20 -20 -20 -20 -20 -20 -20 -20 -20 -20 -20 -20 -20 -20
-20 -20 -20 -20 -20 -20 -20 -20 -20 -20 -20 -20 -20 -20 -20 -20 -20 -20 -20 -20 -20 -20 -20 -20 -20 -20 -20 -20 -20 -20 -20 -20 -20 -20 -20 -20 -20 -20 -20 -20 -20 -20 -20 -20 -20
-20 -20 -20 -20 -20 -20 -20 -20 -20 -20 -20 -20 -20 -20 -20 -20 -20 -20 -20 -20 -20 -20 -20 -20 -20 -20 -20 -20 -20 -20 -20 -20 -20 -20 -20 -20 -20 -20 -20 -20 -20 -20 -20 -20 -20
-20 -20 -20 -20 -20 -20 -20 -20 -20 -20 -4 -20 -20 -20 -20 -20 -20 -20 -20 -20 -20 -20 -20 -20 -20 -20 -20 -20 -20 -20 -20 -20 -20 -20 -20 -20 -20 -20 -20 -20 -20 -20 -20 -20 -20
-20 -20 -20 -20 -20 -20 -20 -20 -20 -20 -20 -20 -20 -20 -20 -20 -20 -20 -20 -20 -20 -20 -20 -20 -20 -20 -20 -20 -20 -20 -20 -20 -20 -20 -20 -20 -20 -20 -20 -20 -20 -20 -20 -20 -20
-20 -20 -20 -20 -20 -20 -20 -20 -20 -20 -20 -20 -20 -20 -20 -20 -20 -20 -20 -20 -20 -20 -20 -20 -20 -20 -20 -20 -20 -20 -20 -20 -20 -20 -20 -20 -20 -20 -20 -20 -20 -20 -20 -20 -20
-20 -20 -20 -20 -20 -20 -20 -20 -20 -20 -20 -20 -20 -20 -20 -20 -20 -20 -20 -20 -20 -20 -20 -20 -20 -20 -20 -20 -20 -20 -20 -20 -20 -20 -20 -20 -20 -20 -20 -20 -7 -20 -20 -20 -20
-20 -20 -20 -20 -20 -20 -20 -20 -20 -20 -20 -20 -20 -20 -20 -20 -20 -20 -20 -20 -20 -20 -20 -20 -20 -20 -20 -20 -20 -20 -20 -20 -20 -20 -20 -20 -20 -3 -20 -20 -20 -20 -20 -20 -20
-20 -20 -20 -20 -20 -20 -20 -20 -20 -20 -20 -20 -20 -20 -20 -20 -20 -20 -20 -20 -20 -20 -20 -20 -20 -20 -20 -20 -20 -20 -20 -20 -20 -20 -10 -10 -20 -20 -20 -20 -20 -20 -20 -20 -20
-20 -20 -20 -20 -20 -20 -20 -20 -20 -20 -20 -20 -20 -20 -20 -20 -20 -20 -20 -20 -20 -20 -20 -20 -20 -20 -20 -20 -20 -20 -20 -20 -20 -20 -19 -18 -2 -20 -20 -20 -20 -20 -20 -20 -20
-20 -20 -20 -20 -20 -20 -20 -20 -20 -20 -20 -20 -20 -20 -20 -20 -20 -20 -20 -20 -20 -20 -20 -20 -20 -20 -20 -20 -20 -20 -20 -20 -20 -20 -5 7 6 -11 -20 -14 -19 -20 -20 -20 -20
-20 -20 -20 -20 -20 -20 -20 -20 -20 -20 -20 -20 -20 -20 -20 -20 -20 -20 -20 -20 -20 -20 -20 -20 -20 -20 -20 -20 -20 -20 -20 -20 -15 1 -9 -6 -9 -20 -20 -20 -20 -20 -20 -20 -20
-20 -20 -20 -20 -20 -20 -20 -20 -20 -20 -20 -20 -20 -20 -20 -20 -20 -20 -20 -20 -20 -20 -20 -20 -20 -20 -20 -20 -20 -20 -20 -20 -12 -4 5 -2 -2 -20 -20 -20 -20 -20 -20 -20 -20
-20 -20 -20 -20 -20 -20 -20 -20 -20 -20 -20 -20 -20 -20 -20 -20 -20 -20 -20 -20 -20 -20 -20 -20 -20 -20 -20 -20 -20 -20 -20 -20 -20 -20 -7 -9 -20 -20 -20 -20 -20 -20 -20 -20 -20
-20 -20 -20 -20 -20 -20 -20 -20 -20 -20 -20 -20 -20 -20 -20 -20 -20 -20 -20 -20 -20 -20 -20 -20 -20 -20 -20 -20 -20 -20 -20 -20 -20 -20 -20 -17 -18 -20 -20 -20 -20 -20 -20 -20 -20
Wind_Speed
15 15 14 13 13 11 10 10 9 8 7 4 3 3 5 4 6 13 18 15 13 16 15 3 3 1 3 3 1 2 5 6 1 4 7 8 4 10 12 12 19 10 13 14 18
15 14 13 13 12 11 11 11 9 7 6 3 1 3 4 9 5 21 18 21 19 16 9 6 2 1 3 1 1 4 4 4 5 4 5 9 6 7 3 8 10 12 14 16 18
15 14 14 14 13 12 11 9 7 6 6 4 2 1 4 9 1 12 27 23 19 14 5 6 5 4 2 2 1 1 5 5 6 9 7 7 12 14 6 9 11 12 15 17 19
17 16 15 15 14 13 10 7 5 4 5 5 3 4 7 5 3 16 26 21 16 10 3 4 3 2 2 2 1 4 7 6 5 9 2 3 7 13 17 8 9 10 12 15 18
17 17 16 15 15 14 10 4 3 4 4 4 3 5 6 9 9 20 21 13 7 7 9 5 5 3 2 1 2 3 7 7 6 10 13 10 11 11 13 10 10 10 12 15 16
18 17 17 15 14 13 9 5 5 5 6 5 1 7 1 7 11 17 14 12 13 10 11 11 5 5 3 3 5 4 6 7 6 10 6 4 4 4 11 9 9 11 13 13 16
18 17 17 16 14 11 8 5 5 6 7 7 3 9 20 10 12 14 14 13 12 11 7 13 6 6 5 3 4 6 6 6 6 6 6 3 6 9 8 7 9 11 11 12 15
18 18 17 16 15 9 7 4 4 6 3 2 4 6 7 2 10 19 18 6 10 10 6 8 8 6 4 4 3 7 6 9 8 5 4 1 2 7 7 7 8 9 10 11 13
19 18 18 17 14 9 7 3 2 5 4 3 2 1 5 3 13 18 14 11 7 4 9 6 5 4 3 4 7 4 8 2 3 6 4 2 3 6 6 6 7 9 10 11 13
19 18 17 16 13 10 7 6 5 2 3 2 6 3 7 7 10 16 15 13 5 4 2 5 3 3 9 7 4 6 7 5 8 4 9 12 6 2 5 6 8 9 11 13 14
18 17 15 12 10 9 4 4 5 4 19 10 9 6 7 11 2 20 19 7 7 7 5 7 7 8 9 9 5 6 9 12 10 7 9 4 8 1 4 5 8 10 12 14 15
17 16 15 12 5 7 3 1 4 4 10 10 11 10 9 6 5 23 20 9 13 14 1 4 9 8 4 7 6 6 10 10 7 0 8 12 10 7 1 4 8 11 14 17 19
18 15 14 9 3 3 7 5 4 4 3 5 6 7 8 9 9 15 15 5 8 11 15 14 7 4 4 8 13 9 7 10 14 17 18 17 21 15 8 4 7 11 12 15 16
17 14 12 8 1 1 4 4 4 4 4 4 6 7 10 2 5 11 11 4 5 8 6 7 5 5 4 6 10 9 6 11 15 13 7 4 6 11 12 8 7 10 12 14 17
17 14 8 13 2 2 4 3 3 4 3 5 4 1 7 7 7 13 9 8 9 10 4 7 6 8 5 6 6 6 16 15 14 14 13 14 7 7 9 9 5 8 12 13 15
13 15 8 1 4 3 3 1 3 4 4 3 2 5 1 10 5 6 7 5 0 3 11 7 2 4 6 8 4 12 15 19 7 7 7 4 4 3 4 2 3 8 12 14 15
11 8 7 3 4 4 1 4 4 2 3 2 2 5 4 7 6 8 7 13 7 4 6 5 3 2 7 10 6 11 14 3 4 6 5 5 8 5 5 5 4 9 14 13 15
8 5 4 5 3 3 3 4 2 2 3 1 2 0 2 7 4 4 2 5 11 7 5 5 3 5 7 5 6 5 6 4 7 7 13 15 6 3 5 4 4 9 13 17 17
5 1 1 7 3 2 4 1 3 3 2 3 2 4 3 2 3 4 5 4 5 10 7 6 1 3 1 3 5 5 2 4 8 15 11 6 4 6 5 5 4 14 18 18 20
1 1 2 7 2 3 2 4 1 2 1 2 3 1 4 3 4 5 1 3 4 3 3 3 8 3 2 3 4 4 3 3 3 7 11 10 16 6 0 3 9 12 13 16 18
2 3 3 2 3 1 2 3 3 2 2 3 1 2 1 4 3 3 2 5 1 3 1 1 1 4 5 1 4 4 4 4 4 8 9 13 10 3 2 4 8 11 13 17 17
3 3 3 1 1 3 3 2 2 4 1 1 2 2 2 0 2 3 1 2 3 1 2 3 5 6 6 3 2 4 8 7 5 10 11 15 14 4 3 4 9 14 17 20 20
4 3 2 3 1 4 4 3 2 3 1 1 1 3 1 1 4 3 2 4 3 1 3 3 3 7 8 5 3 6 6 6 11 12 15 14 10 7 7 9 16 20 22 21 21
2 3 3 4 2 3 5 4 5 2 3 2 3 2 3 4 3 2 3 3 4 3 2 3 6 8 9 11 10 15 14 10 11 10 14 14 19 17 20 17 19 22 22 21 21
3 2 1 2 2 4 2 7 6 5 2 4 3 6 4 3 4 3 2 3 7 5 4 4 8 9 12 13 16 17 13 12 13 14 14 17 18 19 15 16 19 22 22 21 20
2 3 2 2 3 4 2 7 7 3 6 5 5 5 4 3 4 3 3 4 4 7 9 5 8 9 14 16 10 13 15 14 11 12 14 15 18 16 15 18 20 21 22 19 22
2 2 3 5 4 3 2 5 8 9 2 2 2 4 4 3 2 3 5 4 4 5 6 6 6 8 10 8 13 14 4 6 8 9 12 15 18 14 19 21 22 22 19 19 22
Wind_Direction
4 2 360 356 356 354 350 355 359 5 11 9 347 325 342 337 261 64 41 347 329 328 312 285 241 264 223 154 297 273 250 260 298 262 110 43 270 73 83 81 61 58 37 360 351
3 0 356 353 352 351 352 357 359 10 16 30 351 345 349 335 31 47 3 352 342 338 324 340 14 235 167 157 172 258 256 23 18 6 71 52 35 353 211 52 36 26 22 9 5
1 358 356 354 352 349 348 351 358 12 26 34 51 26 319 309 134 16 350 341 338 324 317 319 303 295 249 259 49 63 328 118 43 7 311 115 81 28 312 69 29 16 9 9 10
359 359 359 355 352 346 344 347 0 21 14 19 30 336 306 248 22 352 337 329 323 325 310 308 260 240 266 238 49 190 50 349 56 18 4 88 85 66 49 52 25 32 20 15 14
358 357 357 354 352 347 348 3 34 52 39 13 2 312 285 63 23 342 333 334 341 357 23 0 19 324 276 83 219 251 134 73 81 73 64 88 76 81 51 27 24 14 22 21 18
358 356 355 354 354 354 4 56 70 53 31 47 180 276 300 71 339 349 341 2 2 356 32 22 12 336 48 22 331 51 127 120 94 101 62 114 88 204 42 16 26 19 17 21 16
357 356 353 352 355 358 21 58 46 34 30 9 3 89 67 61 11 1 353 29 17 14 41 22 354 354 312 165 336 157 193 174 58 2 62 172 152 57 19 15 19 14 13 12 21
357 355 354 351 358 6 19 46 44 29 21 15 282 73 74 46 3 14 5 37 26 37 54 17 23 76 16 317 215 246 251 250 75 19 86 15 222 67 19 5 16 13 11 10 14
356 354 354 352 2 23 7 87 67 27 40 209 300 82 75 62 10 360 7 351 322 41 42 42 59 49 6 284 237 198 301 249 181 66 341 311 316 60 19 3 6 13 11 12 7
356 353 354 352 358 344 333 8 33 45 337 143 44 131 44 6 356 356 352 339 346 305 141 21 67 105 32 351 339 334 309 271 276 63 341 299 254 65 31 4 13 17 16 15 9
354 349 347 346 346 345 285 255 231 39 40 59 32 72 25 344 318 7 346 328 348 48 4 21 60 53 27 17 342 312 288 288 289 353 316 296 285 197 15 21 22 23 18 10 3
349 348 343 340 331 339 300 341 49 103 96 61 68 68 43 337 12 7 350 38 29 28 334 103 60 29 8 2 332 309 302 303 324 52 290 281 263 189 119 59 43 27 18 6 356
348 346 344 343 254 356 67 61 348 331 100 62 55 34 4 6 44 4 9 12 17 30 43 54 37 357 345 14 348 332 312 337 307 309 277 263 262 176 166 122 58 31 16 5 356
345 342 346 344 202 10 57 0 330 325 219 46 22 35 3 3 73 29 6 350 54 29 46 65 31 6 357 28 348 313 4 305 296 301 290 121 298 183 165 162 60 19 5 357 350
344 342 348 10 64 50 20 313 294 247 274 48 57 348 29 61 330 22 15 35 60 33 257 72 31 14 24 359 327 310 318 297 292 283 285 263 250 93 172 204 50 3 352 350 345
347 354 331 56 78 38 321 264 238 228 262 87 59 356 327 44 45 358 21 57 28 76 73 91 75 26 356 313 280 301 300 276 259 272 260 267 234 224 169 95 42 352 343 342 338
342 17 17 339 35 347 254 208 240 287 133 83 0 1 59 24 41 19 40 45 31 341 22 147 84 118 357 330 195 345 335 304 239 202 281 74 293 324 119 111 32 344 341 340 338
342 309 42 41 350 311 224 218 266 62 45 92 328 270 45 354 77 14 284 76 41 4 307 347 220 19 5 31 309 332 345 2 303 323 311 315 263 106 146 160 256 346 338 341 335
322 157 53 6 337 263 236 288 8 41 27 332 218 259 140 153 299 273 50 78 37 11 11 336 217 138 41 305 324 11 355 355 273 265 261 262 128 146 172 236 310 345 337 327 331
290 205 77 343 311 249 272 81 85 40 329 244 285 296 298 19 284 341 42 100 121 44 332 79 282 140 83 249 177 328 8 252 226 288 312 297 309 11 57 315 337 328 326 321 324
241 231 88 7 220 268 28 66 128 102 305 336 323 269 2 341 325 324 56 133 141 111 343 327 230 140 220 177 332 233 237 272 257 263 293 299 302 90 63 319 310 314 326 322 327
294 284 35 263 141 50 84 73 73 127 90 10 340 6 306 243 273 278 281 44 119 54 325 49 310 290 294 70 269 295 292 295 277 295 293 302 294 139 192 265 287 334 328 330 328
332 327 71 294 304 110 133 111 88 155 63 159 124 326 302 256 287 239 234 112 150 220 0 69 197 289 153 165 193 231 265 257 284 280 271 279 293 181 228 318 342 332 330 329 325
296 297 55 55 14 125 156 175 152 116 134 146 139 182 205 222 226 265 227 175 188 223 106 257 250 261 282 313 301 292 297 288 256 270 291 295 307 327 326 343 332 328 328 326 325
18 109 36 329 84 118 174 162 168 180 193 193 176 229 217 250 235 236 222 205 209 194 215 255 269 278 275 289 286 283 283 293 278 263 272 300 297 313 340 335 327 327 325 324 322
177 174 165 110 137 166 176 199 199 157 174 187 247 172 210 254 286 305 255 226 255 174 233 206 274 291 283 283 282 274 269 278 265 279 279 297 298 334 333 330 327 326 325 320 331
123 120 270 137 183 223 199 174 186 152 164 342 198 180 224 293 298 325 282 297 292 257 232 242 272 295 281 299 300 278 251 243 276 282 291 296 313 335 323 327 325 323 310 334 326